Regional Weather Roundup
Issued by NWS Goodland, KS

Home | Current Version | Previous Version | Text Only | Print | Product List | Glossary On
Versions: 1 2 3 4 5 6 7 8 9 10 11 12 13 14 15 16 17 18 19 20 21 22 23 24 25 26 27 28 29 30 31 32 33 34 35 36 37 38 39 40 41 42 43 44 45 46 47 48 49 50
000
ASUS43 KGLD 062059
RWRGLD

GOODLAND FORECAST AREA HOURLY WEATHER ROUNDUP
NATIONAL WEATHER SERVICE GOODLAND KS
300 PM MDT FRI MAY 06 2016

...OFFICIAL OBSERVATIONS...

CITY           SKY/WX    TMP DP  RH WIND       PRES   REMARKS
GOODLAND KS    CLOUDY    86  37  17 S22       29.90F
HILL CITY KS   SUNNY     88  47  24 S14G25    29.90F
IMPERIAL NEB   SUNNY     85  47  26 SE17      29.87F
MCCOOK NEB     SUNNY     83  51  33 S14       29.88F
AKRON CO       CLOUDY    84  36  18 S14       29.90F
BURLINGTON CO  SUNNY     85  33  15 S17       29.93F
LIMON CO       SUNNY     79  32  18 S22G29    29.95F
$$

...UNOFFICIAL OBSERVATIONS...

CITY           SKY/WX    TMP DP  RH WIND       PRES   REMARKS
COLBY KS       SUNNY     82  52  34 S16G23    29.91F
LENORA KS        N/A     83  32  16 MISG        N/A
NORTON KS      SUNNY     88  37  16 S14G22    29.90F
SHARON SPRINGS   N/A     88  38  16 S24G33      N/A
KIT CARSON CO    N/A     84  38  20 MISG        N/A
YUMA CO          N/A     86  35  16 S8G24       N/A
$$



USA.gov is the U.S. government's official web portal to all federal, state and local government web resources and services.